Wetterstats.de || Aktuelle Messwerte / Archiv || Stationsstandorte || Wetterblog || Wissenswertes


Monatsübersicht für Januar 2019 Diagramm
 
Wetter Information zur Wetteranzeige
Zeitraffer
Tageslänge (hh:mm)
Höchsttemperatur in °C
Uhrzeit
Tiefsttemperatur in °C
Uhrzeit
Luftfeuchte (max., in %)
Uhrzeit
Luftfeuchte (min., in %)
Uhrzeit
Luftdruck (max., in hPa)
Uhrzeit
Luftdruck (min., in hPa)
Uhrzeit
Luftdruck (Ø, in hPa)
Regenrate (max, mm/h)
Uhrzeit
Niederschlag in mm
Niederschlagsdauer (hh:mm)
Verdunstung in mm
Solar in W/m² (Ø)
Solar in W/m² (max.)
UV-Index (max.)
Sonnenscheindauer (hh:mm)
Windrichtung (Ø)
Windstärke (Ø in km/h)
Windstärke (Ø in bft)
Windböe (max., in km/h)
Uhrzeit
Windböe (max., in bft)
Uhrzeit
Taupunkt (max., in °C)
Uhrzeit
Taupunkt (min., in °C)
Uhrzeit
Windchill (min., in °C)
Uhrzeit
Gewitterindex (max.)
Uhrzeit
Waldbrandindex (max.)
Uhrzeit
Graslandfeuerindex (max.)
Uhrzeit
Staubsturm-Index (max.)
Uhrzeit
01
Zeitraffer
8.3
11:55 Uhr
5.3
23:55 Uhr

94
00:00 Uhr
72
22:35 Uhr
1025.5
00:00 Uhr

1011.7
17:40 Uhr
1015.9
3,100
05:20 Uhr
0,300
0.000
0
0
00:00 Uhr
0.0
00:00 Uhr

00:00:00
1,6
0
15,5
19:00 Uhr

3
7.1
11:55 Uhr
1.0
22:50 Uhr
5.1
23:30 Uhr
0
00:00 Uhr
0.0
00:00 Uhr
0.0
00:00 Uhr
0.0
00:00 Uhr
02
Zeitraffer
5.4
00:40 Uhr
1.1
23:45 Uhr

83
11:40 Uhr
53
17:25 Uhr
1030.0
23:50 Uhr

1013.5
00:00 Uhr
1022.3
0,000
00:00 Uhr
0,000
0.000
0
0
00:00 Uhr
0.0
00:00 Uhr

00:00:00
2,6
1
28,8
12:45 Uhr

4
1.3
00:35 Uhr
-6.0
17:25 Uhr
0.4
17:25 Uhr
0
00:00 Uhr
0.0
00:00 Uhr
0.0
00:00 Uhr
0.0
00:00 Uhr
03
Zeitraffer
2.1
14:00 Uhr
-0.2
23:45 Uhr

84
12:05 Uhr
74
00:00 Uhr
1033.7
20:45 Uhr

1029.8
07:05 Uhr
1031.5
0,000
00:00 Uhr
0,000
0.000
0
0
00:00 Uhr
0.0
00:00 Uhr

00:00:00
0,5
0
11,2
07:30 Uhr

2
-0.3
14:00 Uhr
-3.0
00:35 Uhr
-0.2
23:45 Uhr
0
00:00 Uhr
0.0
00:00 Uhr
0.0
00:00 Uhr
0.0
00:00 Uhr
04
Zeitraffer
4.3
23:45 Uhr
-0.1
00:10 Uhr

94
23:00 Uhr
83
00:10 Uhr
1033.2
00:30 Uhr

1019.9
23:50 Uhr
1026.3
3,100
14:55 Uhr
0,300
0.000
0
0
00:00 Uhr
0.0
00:00 Uhr

00:00:00
0,3
0
6,5
12:10 Uhr

1
3.4
23:45 Uhr
-2.6
00:10 Uhr
-0.1
00:10 Uhr
0
00:00 Uhr
0.0
00:00 Uhr
0.0
00:00 Uhr
0.0
00:00 Uhr
05
Zeitraffer
7.4
14:30 Uhr
4.3
00:00 Uhr

94
00:00 Uhr
87
20:15 Uhr
1023.5
22:55 Uhr

1015.3
06:30 Uhr
1019.0
3,100
03:10 Uhr
0,500
0.000
0
0
00:00 Uhr
0.0
00:00 Uhr

00:00:00
1,2
0
17,6
19:20 Uhr

3
6.3
14:25 Uhr
3.0
22:40 Uhr
4.3
00:00 Uhr
0
00:00 Uhr
0.0
00:00 Uhr
0.0
00:00 Uhr
0.0
00:00 Uhr
06
Zeitraffer
4.6
00:00 Uhr
3.2
23:45 Uhr

90
00:00 Uhr
81
12:50 Uhr
1028.7
20:35 Uhr

1023.6
00:00 Uhr
1026.7
0,000
00:00 Uhr
0,000
0.000
0
0
00:00 Uhr
0.0
00:00 Uhr

00:00:00
0,4
0
8,6
01:30 Uhr

2
3.1
00:00 Uhr
1.3
16:25 Uhr
3.2
23:45 Uhr
0
00:00 Uhr
0.0
00:00 Uhr
0.0
00:00 Uhr
0.0
00:00 Uhr
07
Zeitraffer
5.6
22:15 Uhr
2.8
01:35 Uhr

94
15:30 Uhr
88
01:15 Uhr
1028.5
00:20 Uhr

1012.7
23:55 Uhr
1024.1
3,100
07:05 Uhr
2,300
0.000
0
0
00:00 Uhr
0.0
00:00 Uhr

00:00:00
0,3
0
6,5
14:20 Uhr

1
4.6
21:55 Uhr
1.0
01:35 Uhr
2.8
01:35 Uhr
0
00:00 Uhr
0.0
00:00 Uhr
0.0
00:00 Uhr
0.0
00:00 Uhr
08
Zeitraffer
6.4
14:30 Uhr
4.1
23:45 Uhr

94
00:15 Uhr
90
19:10 Uhr
1012.6
00:00 Uhr

995.4
13:40 Uhr
1000.5
3,100
00:00 Uhr
5,700
0.000
0
0
00:00 Uhr
0.0
00:00 Uhr

00:00:00
1,0
0
13,3
11:05 Uhr

3
5.4
14:40 Uhr
2.7
23:40 Uhr
4.0
23:50 Uhr
0
00:00 Uhr
0.0
00:00 Uhr
0.0
00:00 Uhr
0.0
00:00 Uhr
09
Zeitraffer
4.1
00:00 Uhr
2.5
10:05 Uhr

93
21:30 Uhr
89
16:05 Uhr
1015.8
23:50 Uhr

997.9
00:00 Uhr
1005.7
3,100
01:30 Uhr
3,600
0.000
0
0
00:00 Uhr
0.0
00:00 Uhr

00:00:00
2,8
1
19,8
06:00 Uhr

3
2.6
00:00 Uhr
1.0
10:05 Uhr
1.2
22:20 Uhr
0
00:00 Uhr
0.0
00:00 Uhr
0.0
00:00 Uhr
0.0
00:00 Uhr
10
Zeitraffer
2.9
00:00 Uhr
1.6
08:50 Uhr

93
00:00 Uhr
80
14:10 Uhr
1023.2
20:25 Uhr

1015.9
00:00 Uhr
1021.1
3,100
01:05 Uhr
0,300
0.000
0
0
00:00 Uhr
0.0
00:00 Uhr

00:00:00
1,8
0
17,6
00:50 Uhr

3
1.9
00:00 Uhr
-0.6
16:40 Uhr
0.6
09:40 Uhr
0
00:00 Uhr
0.0
00:00 Uhr
0.0
00:00 Uhr
0.0
00:00 Uhr
11
Zeitraffer
5.0
22:15 Uhr
1.7
03:50 Uhr

94
19:35 Uhr
84
00:00 Uhr
1022.7
00:05 Uhr

1011.2
17:35 Uhr
1015.6
3,100
08:45 Uhr
1,000
0.000
0
0
00:00 Uhr
0.0
00:00 Uhr

00:00:00
0,4
0
8,6
22:25 Uhr

2
4.1
22:15 Uhr
-0.5
00:00 Uhr
1.7
03:50 Uhr
0
00:00 Uhr
0.0
00:00 Uhr
0.0
00:00 Uhr
0.0
00:00 Uhr
12
Zeitraffer
6.2
14:40 Uhr
4.7
04:40 Uhr

94
00:00 Uhr
87
08:25 Uhr
1013.9
03:10 Uhr

1002.0
23:50 Uhr
1009.1
3,100
11:05 Uhr
2,300
0.000
0
0
00:00 Uhr
0.0
00:00 Uhr

00:00:00
0,5
0
11,2
00:15 Uhr

2
5.0
21:30 Uhr
2.9
08:15 Uhr
4.7
04:40 Uhr
0
00:00 Uhr
0.0
00:00 Uhr
0.0
00:00 Uhr
0.0
00:00 Uhr
13
Zeitraffer
7.6
17:25 Uhr
6.0
00:00 Uhr

93
00:00 Uhr
91
03:15 Uhr
1001.9
00:00 Uhr

985.7
19:40 Uhr
994.4
6,200
20:55 Uhr
5,900
0.000
0
0
00:00 Uhr
0.0
00:00 Uhr

00:00:00
0,9
0
15,5
21:00 Uhr

3
6.6
19:05 Uhr
4.6
03:20 Uhr
6.0
00:00 Uhr
0
00:00 Uhr
0.0
00:00 Uhr
0.0
00:00 Uhr
0.0
00:00 Uhr
14
Zeitraffer
6.5
00:00 Uhr
1.6
19:45 Uhr

90
00:00 Uhr
69
14:00 Uhr
1008.1
22:35 Uhr

986.9
00:05 Uhr
999.5
3,100
12:05 Uhr
0,500
0.000
0
0
00:00 Uhr
0.0
00:00 Uhr

00:00:00
2,0
0
24,1
14:05 Uhr

4
5.0
00:00 Uhr
-1.5
19:45 Uhr
1.3
14:40 Uhr
0
00:00 Uhr
0.0
00:00 Uhr
0.0
00:00 Uhr
0.0
00:00 Uhr
15
Zeitraffer
6.2
23:25 Uhr
1.6
00:00 Uhr

93
17:55 Uhr
84
00:00 Uhr
1009.6
05:25 Uhr

1005.4
19:35 Uhr
1007.6
3,100
08:40 Uhr
1,800
0.000
0
0
00:00 Uhr
0.0
00:00 Uhr

00:00:00
1,2
0
11,2
05:15 Uhr

2
5.2
23:55 Uhr
-0.8
00:00 Uhr
1.6
00:00 Uhr
0
00:00 Uhr
0.0
00:00 Uhr
0.0
00:00 Uhr
0.0
00:00 Uhr


 
Wetter Information zur Wetteranzeige
Zeitraffer
Tageslänge (hh:mm)
Höchsttemperatur in °C
Uhrzeit
Tiefsttemperatur in °C
Uhrzeit
Luftfeuchte (max., in %)
Uhrzeit
Luftfeuchte (min., in %)
Uhrzeit
Luftdruck (max., in hPa)
Uhrzeit
Luftdruck (min., in hPa)
Uhrzeit
Luftdruck (Ø, in hPa)
Regenrate (max, mm/h)
Uhrzeit
Niederschlag in mm
Niederschlagsdauer (hh:mm)
Verdunstung in mm
Solar in W/m² (Ø)
Solar in W/m² (max.)
UV-Index (max.)
Sonnenscheindauer (hh:mm)
Windrichtung (Ø)
Windstärke (Ø in km/h)
Windstärke (Ø in bft)
Windböe (max., in km/h)
Uhrzeit
Windböe (max., in bft)
Uhrzeit
Taupunkt (max., in °C)
Uhrzeit
Taupunkt (min., in °C)
Uhrzeit
Windchill (min., in °C)
Uhrzeit
Gewitterindex (max.)
Uhrzeit
Waldbrandindex (max.)
Uhrzeit
Graslandfeuerindex (max.)
Uhrzeit
Staubsturm-Index (max.)
Uhrzeit
16
Zeitraffer
7.3
13:20 Uhr
5.8
23:40 Uhr

93
00:00 Uhr
81
20:40 Uhr
1007.5
04:25 Uhr

1000.3
23:50 Uhr
1005.4
3,100
04:35 Uhr
0,300
0.000
0
0
00:00 Uhr
0.0
00:00 Uhr

00:00:00
0,9
0
11,2
02:40 Uhr

2
5.8
04:05 Uhr
2.9
23:55 Uhr
5.8
23:40 Uhr
0
00:00 Uhr
0.0
00:00 Uhr
0.0
00:00 Uhr
0.0
00:00 Uhr
17
Zeitraffer
6.7
13:15 Uhr
4.7
23:50 Uhr

86
08:40 Uhr
74
16:00 Uhr
1002.2
23:55 Uhr

997.1
04:50 Uhr
998.6
3,100
19:15 Uhr
0,500
0.000
0
0
00:00 Uhr
0.0
00:00 Uhr

00:00:00
0,7
0
11,2
04:50 Uhr

2
3.8
10:40 Uhr
2.0
22:50 Uhr
4.7
23:50 Uhr
0
00:00 Uhr
0.0
00:00 Uhr
0.0
00:00 Uhr
0.0
00:00 Uhr
18
Zeitraffer
4.6
00:00 Uhr
1.3
08:25 Uhr

84
01:50 Uhr
70
14:05 Uhr
1019.7
23:25 Uhr

1002.3
00:05 Uhr
1013.8
3,100
00:00 Uhr
0,500
0.000
0
0
00:00 Uhr
0.0
00:00 Uhr

00:00:00
0,6
0
11,2
02:30 Uhr

2
1.8
00:00 Uhr
-2.3
08:25 Uhr
1.3
08:25 Uhr
0
00:00 Uhr
0.0
00:00 Uhr
0.0
00:00 Uhr
0.0
00:00 Uhr
19
Zeitraffer
3.6
11:45 Uhr
-0.6
23:55 Uhr

82
08:55 Uhr
75
15:40 Uhr
1020.3
09:50 Uhr

1018.2
23:30 Uhr
1019.2
0,000
00:00 Uhr
0,000
0.000
0
0
00:00 Uhr
0.0
00:00 Uhr

00:00:00
0,3
0
8,6
17:00 Uhr

2
0.3
11:50 Uhr
-3.3
23:25 Uhr
-0.6
23:55 Uhr
0
00:00 Uhr
0.0
00:00 Uhr
0.0
00:00 Uhr
0.0
00:00 Uhr
20
Zeitraffer
0.2
14:05 Uhr
-3.9
08:40 Uhr

85
06:15 Uhr
82
00:00 Uhr
1022.9
22:55 Uhr

1017.3
04:05 Uhr
1019.3
0,000
00:00 Uhr
0,000
0.000
0
0
00:00 Uhr
0.0
00:00 Uhr

00:00:00
1,3
0
15,5
15:40 Uhr

3
-2.5
13:20 Uhr
-6.0
08:10 Uhr
-4.2
08:35 Uhr
0
00:00 Uhr
0.0
00:00 Uhr
0.0
00:00 Uhr
0.0
00:00 Uhr
21
Zeitraffer
0.3
12:45 Uhr
-1.5
05:55 Uhr

83
07:25 Uhr
78
16:35 Uhr
1023.0
02:20 Uhr

1017.1
23:20 Uhr
1020.8
0,000
00:00 Uhr
0,000
0.000
0
0
00:00 Uhr
0.0
00:00 Uhr

00:00:00
0,4
0
11,2
16:10 Uhr

2
-2.8
12:20 Uhr
-4.2
05:55 Uhr
-1.5
05:55 Uhr
0
00:00 Uhr
0.0
00:00 Uhr
0.0
00:00 Uhr
0.0
00:00 Uhr
22
Zeitraffer
0.4
12:10 Uhr
-3.2
23:50 Uhr

81
02:05 Uhr
70
15:50 Uhr
1017.1
00:00 Uhr

1006.1
23:35 Uhr
1011.5
0,000
00:00 Uhr
0,000
0.000
0
0
00:00 Uhr
0.0
00:00 Uhr

00:00:00
1,7
0
19,8
17:00 Uhr

3
-3.4
12:10 Uhr
-6.3
23:50 Uhr
-4.2
23:25 Uhr
0
00:00 Uhr
0.0
00:00 Uhr
0.0
00:00 Uhr
0.0
00:00 Uhr
23
Zeitraffer
-3.2
00:00 Uhr
-5.6
07:35 Uhr

85
10:05 Uhr
78
23:20 Uhr
1008.3
23:45 Uhr

1004.1
12:45 Uhr
1005.4
0,000
00:00 Uhr
0,000
0.000
0
0
00:00 Uhr
0.0
00:00 Uhr

00:00:00
4,9
1
31,0
19:25 Uhr

5
-6.3
00:00 Uhr
-8.2
07:35 Uhr
-8.9
15:15 Uhr
0
00:00 Uhr
0.0
00:00 Uhr
0.0
00:00 Uhr
0.0
00:00 Uhr
24
Zeitraffer
-3.0
03:20 Uhr
-4.2
13:50 Uhr

80
21:15 Uhr
74
11:40 Uhr
1014.6
22:30 Uhr

1008.3
00:00 Uhr
1011.7
0,000
00:00 Uhr
0,000
0.000
0
0
00:00 Uhr
0.0
00:00 Uhr

00:00:00
3,9
1
24,1
02:15 Uhr

4
-6.5
21:30 Uhr
-7.5
14:20 Uhr
-7.0
09:25 Uhr
0
00:00 Uhr
0.0
00:00 Uhr
0.0
00:00 Uhr
0.0
00:00 Uhr
25
Zeitraffer
-1.0
11:50 Uhr
-3.7
01:10 Uhr

82
09:55 Uhr
72
14:35 Uhr
1015.1
10:40 Uhr

1008.5
23:55 Uhr
1013.5
0,000
00:00 Uhr
0,000
0.000
0
0
00:00 Uhr
0.0
00:00 Uhr

00:00:00
0,7
0
11,2
01:00 Uhr

2
-4.2
11:40 Uhr
-7.0
02:05 Uhr
-4.9
01:00 Uhr
0
00:00 Uhr
0.0
00:00 Uhr
0.0
00:00 Uhr
0.0
00:00 Uhr
26
Zeitraffer
3.0
23:50 Uhr
-1.5
00:00 Uhr

93
19:00 Uhr
73
00:00 Uhr
1008.4
00:00 Uhr

997.5
23:45 Uhr
1001.8
3,100
11:05 Uhr
1,500
0.000
0
0
00:00 Uhr
0.0
00:00 Uhr

00:00:00
0,5
0
13,3
03:40 Uhr

3
2.0
23:50 Uhr
-5.7
00:00 Uhr
-2.2
01:10 Uhr
0
00:00 Uhr
0.0
00:00 Uhr
0.0
00:00 Uhr
0.0
00:00 Uhr
27
Zeitraffer
4.4
11:05 Uhr
3.0
00:00 Uhr

93
00:00 Uhr
89
22:00 Uhr
997.4
00:00 Uhr

985.9
18:35 Uhr
989.5
0,300
22:20 Uhr
0,000
0.000
0
0
00:00 Uhr
0.0
00:00 Uhr

00:00:00
1,6
0
15,5
14:30 Uhr

3
4.4
14:40 Uhr
2.0
00:00 Uhr
1.2
07:30 Uhr
0
00:00 Uhr
0.0
00:00 Uhr
0.0
00:00 Uhr
0.0
00:00 Uhr
28
Zeitraffer
5.2
00:00 Uhr
3.7
08:15 Uhr

92
04:25 Uhr
77
15:20 Uhr
994.6
23:45 Uhr

986.8
00:00 Uhr
990.5
3,100
03:15 Uhr
1,300
0.000
0
0
00:00 Uhr
0.0
00:00 Uhr

00:00:00
0,6
0
13,3
12:30 Uhr

3
4.0
11:25 Uhr
2.2
08:35 Uhr
3.7
08:15 Uhr
0
00:00 Uhr
0.0
00:00 Uhr
0.0
00:00 Uhr
0.0
00:00 Uhr
29
Zeitraffer
4.4
00:05 Uhr
1.6
08:00 Uhr

89
00:20 Uhr
84
14:35 Uhr
1003.9
18:30 Uhr

994.6
00:10 Uhr
1001.6
0,000
00:05 Uhr
0,000
0.000
0
0
00:00 Uhr
0.0
00:00 Uhr

00:00:00
0,3
0
6,5
03:25 Uhr

1
2.6
00:05 Uhr
-0.5
08:00 Uhr
1.6
08:00 Uhr
0
00:00 Uhr
0.0
00:00 Uhr
0.0
00:00 Uhr
0.0
00:00 Uhr
30
Zeitraffer
2.7
00:00 Uhr
-0.2
05:45 Uhr

87
05:15 Uhr
69
13:35 Uhr
1002.9
00:00 Uhr

998.3
16:00 Uhr
1000.1
0,000
00:00 Uhr
0,000
0.000
0
0
00:00 Uhr
0.0
00:00 Uhr

00:00:00
3,7
1
33,1
12:30 Uhr

5
0.3
00:00 Uhr
-2.9
18:50 Uhr
-1.1
08:55 Uhr
0
00:00 Uhr
0.0
00:00 Uhr
0.0
00:00 Uhr
0.0
00:00 Uhr
31
Zeitraffer
3.6
14:05 Uhr
0.0
02:00 Uhr

82
05:10 Uhr
74
15:00 Uhr
1000.5
10:25 Uhr

998.4
00:50 Uhr
999.6
0,000
00:00 Uhr
0,000
00:00:00
0.000
0
0
00:00 Uhr
0.0
00:00 Uhr

00:00:00
1,7
0
17,6
00:50 Uhr

3
-0.2
13:55 Uhr
-2.9
02:05 Uhr
-1.4
00:15 Uhr
0
00:00 Uhr
0.0
00:00 Uhr
0.0
00:00 Uhr
0.0
00:00 Uhr

Seiten-Historie || Downloads || Impressum / Datenschutz